Wind_Speed
3 3 4 3 2 2 3 4 4 4 5 5 5 5 5 6 6 6 6 6 6 7 7 8 8 8 9 10 10 9 9 10 10 10 10 10 10 10 10 11 11 11 11
3 3 4 3 3 3 3 4 4 5 6 6 6 6 6 6 7 7 7 7 6 7 8 8 8 9 9 9 9 11 11 11 11 11 12 12 12 12 12 12 12 12 12
3 3 3 4 3 3 3 4 4 5 6 6 6 6 6 6 7 8 8 8 8 8 9 9 9 9 9 9 10 11 11 11 12 12 13 13 13 12 13 13 13 13 13
4 3 3 3 3 3 4 5 5 5 6 6 7 7 7 8 8 9 9 9 9 10 10 9 9 10 10 10 11 12 12 12 12 13 13 13 14 14 14 14 14 14 14
5 4 3 3 3 4 5 5 6 6 6 7 7 8 8 8 8 8 8 9 9 10 10 10 10 11 11 11 11 12 13 12 12 13 14 14 15 15 15 14 15 15 15
5 4 3 3 4 5 6 6 6 7 7 8 8 8 9 9 8 9 9 10 10 11 11 11 11 12 12 12 12 13 14 14 14 14 14 15 15 16 16 16 16 16 16
5 4 4 5 6 6 6 7 8 9 8 8 9 9 10 10 10 10 11 11 11 11 12 12 12 13 13 13 14 14 15 15 15 15 15 16 16 16 17 17 17 17 18
6 5 5 6 6 6 7 8 8 9 9 9 9 9 11 11 12 12 12 12 12 12 13 13 13 14 15 16 16 15 16 16 16 16 17 17 17 17 18 18 19 18 18
6 6 6 6 7 7 8 9 9 9 9 9 10 10 11 11 12 13 13 13 13 14 14 14 15 15 16 17 17 18 17 17 17 18 18 18 19 19 19 19 19 19 19
7 6 6 7 8 8 9 9 10 10 10 10 11 11 12 13 13 13 14 14 14 14 15 16 17 17 18 18 18 19 19 19 19 19 19 19 20 20 19 20 20 21 20
7 7 7 8 9 9 10 10 11 11 12 12 13 13 13 14 14 14 14 15 16 16 16 17 18 18 18 18 18 19 20 20 21 21 20 20 20 21 21 21 21 21 21
9 9 9 9 10 10 11 12 13 14 14 15 15 16 16 16 16 16 15 16 17 17 18 18 19 19 19 20 20 20 20 21 21 22 21 22 22 22 22 22 22 22 22
10 10 11 11 12 12 13 14 15 16 16 16 17 17 17 17 18 18 17 17 18 18 19 20 20 20 21 21 21 21 22 22 22 22 22 23 23 23 23 23 23 23 23
12 12 13 14 14 15 16 16 17 18 18 18 18 18 18 19 20 20 19 19 19 19 20 21 22 22 22 22 23 23 23 22 22 22 22 23 24 24 24 24 24 23 23
13 14 15 16 17 18 18 18 19 19 19 19 19 19 20 21 21 21 21 20 20 20 21 22 23 24 24 24 24 23 23 23 23 24 23 23 24 24 24 24 24 25 24
16 15 16 17 18 19 20 20 20 20 21 21 21 22 22 22 21 22 23 23 23 23 23 23 25 26 26 26 25 24 24 24 24 24 24 24 24 23 23 24 25 25 26
17 18 18 19 19 20 21 21 22 22 22 22 23 24 24 23 23 23 24 24 24 25 25 25 26 27 27 26 25 25 25 25 25 25 25 25 24 24 24 24 25 25 26
19 19 19 20 21 22 22 22 23 23 23 24 25 25 25 25 25 26 25 25 26 25 25 24 25 26 25 25 25 25 26 26 26 26 25 25 25 25 25 25 25 25 26
21 21 21 22 22 22 23 24 25 25 25 26 26 26 26 27 27 27 26 27 26 26 25 24 23 23 24 24 24 25 26 26 27 27 27 26 26 26 26 27 26 26 27
23 23 23 23 23 24 25 26 26 26 27 27 27 27 28 28 28 27 27 27 27 26 26 26 25 25 25 25 26 26 27 27 28 28 28 28 28 28 27 28 28 28 28
25 25 25 25 25 26 26 26 26 27 28 28 28 28 28 29 29 29 28 28 28 28 28 28 27 27 27 27 28 28 28 28 29 29 29 29 29 29 29 29 29 29 29
27 27 26 27 27 27 27 27 28 28 28 28 29 29 29 29 29 29 29 29 29 29 29 28 28 28 28 28 29 30 30 29 29 29 30 29 30 30 30 30 30 30 30
29 29 28 29 29 28 28 29 29 30 30 30 30 31 30 30 30 30 30 30 29 30 30 29 29 29 30 30 30 30 31 30 30 30 30 29 30 30 30 30 31 31 31
30 30 30 30 30 30 30 31 32 31 31 31 31 31 31 31 31 32 31 31 31 31 31 31 30 31 31 32 32 31 32 31 31 31 30 30 30 30 30 30 31 31 32
31 31 31 31 32 32 33 33 33 33 32 32 32 32 32 32 33 33 33 32 32 32 32 33 32 32 32 32 33 33 32 32 31 31 31 31 30 30 30 30 31 31 31
32 32 33 34 34 34 34 34 35 34 33 33 33 33 33 33 34 34 34 33 33 32 33 33 33 33 33 33 33 33 33 33 31 30 30 30 30 31 30 30 31 31 32
Wind_Direction
16 6 352 347 338 307 296 299 301 306 315 314 313 310 305 302 299 301 299 293 298 306 310 308 306 296 288 283 284 284 284 279 276 273 276 274 273 274 272 270 270 275 274
10 8 6 4 2 340 326 315 310 304 304 316 317 316 314 311 304 296 293 289 294 300 303 305 304 300 294 287 283 283 285 283 275 274 276 274 272 272 274 272 271 272 274
12 17 8 11 9 1 350 337 322 309 313 315 317 318 315 312 304 297 290 289 290 292 296 299 301 296 292 287 284 285 283 285 279 277 275 274 272 270 271 273 271 272 273
4 3 9 7 359 352 344 335 326 320 316 314 311 313 310 307 302 299 296 290 289 291 292 294 295 293 292 287 286 285 284 281 284 279 277 274 272 272 273 273 273 270 272
3 3 2 359 356 343 344 340 334 326 317 314 312 310 311 311 303 298 297 295 296 296 297 293 292 293 292 285 284 283 281 279 285 280 277 275 273 272 272 273 275 275 275
356 354 347 340 345 340 335 333 330 324 320 316 317 316 316 315 307 304 302 299 298 297 296 295 292 294 294 289 285 281 282 282 284 280 277 275 273 272 275 275 277 277 278
348 344 338 332 331 330 330 329 326 326 324 319 318 318 317 318 311 306 303 299 296 294 294 291 289 290 291 290 287 283 280 281 284 281 278 276 274 275 277 277 276 275 277
346 343 336 336 334 332 331 330 330 329 325 321 320 317 316 316 313 310 304 299 297 297 296 293 291 290 288 289 288 289 284 283 283 283 280 279 276 275 277 278 276 276 276
344 338 335 335 334 331 330 331 333 330 325 321 319 318 316 314 313 308 304 301 299 298 297 296 293 292 291 289 288 286 286 284 282 281 280 280 279 277 276 277 277 277 276
343 334 327 329 331 328 326 328 332 329 324 319 319 316 313 310 310 309 305 303 300 298 296 295 295 295 291 290 286 286 285 283 281 280 279 278 278 278 276 275 275 278 276
333 332 328 325 325 324 323 324 325 322 317 314 314 314 313 312 312 309 305 302 300 298 297 297 296 295 292 291 288 286 284 283 282 280 279 276 276 278 279 276 275 278 277
324 326 324 320 319 319 320 318 319 319 313 309 308 308 308 308 308 307 304 300 297 296 297 297 296 295 293 292 292 288 285 283 283 281 279 277 278 278 278 277 276 276 277
317 317 316 317 316 315 314 313 311 313 312 307 306 306 305 306 306 306 303 300 297 296 295 295 295 294 294 294 292 290 287 284 282 282 280 279 279 278 277 276 276 274 276
314 309 309 314 313 312 310 308 306 305 306 305 306 305 304 305 306 304 302 300 297 295 295 295 294 293 292 292 291 291 289 287 285 283 281 280 279 278 277 275 276 276 276
319 315 311 312 311 308 306 305 305 306 305 304 302 301 303 306 305 304 302 300 298 296 294 294 294 293 293 290 290 290 289 289 287 285 282 281 280 278 278 276 276 275 274
316 314 312 311 309 306 304 304 304 305 308 306 303 303 303 304 306 304 303 302 298 296 294 294 292 291 292 291 288 288 287 286 286 285 283 283 281 280 279 277 276 277 274
310 310 310 309 307 303 302 303 303 303 304 304 304 304 304 304 304 305 304 304 302 300 296 294 293 292 291 291 290 288 287 286 285 285 283 281 281 280 279 279 278 276 275
305 306 307 307 305 303 302 302 302 303 303 303 303 303 303 302 302 301 301 301 302 301 300 299 297 294 291 290 289 289 289 287 286 285 282 280 279 279 278 278 278 277 275
303 305 305 305 303 303 303 304 304 303 303 302 303 304 303 301 300 299 299 300 299 298 299 300 299 297 294 291 290 290 289 288 286 285 284 281 279 279 279 277 277 276 275
303 304 302 302 302 302 302 303 304 304 303 304 303 302 302 301 300 299 299 299 298 296 297 297 297 296 295 292 290 291 289 288 287 285 284 281 280 279 279 277 276 276 275
302 301 301 301 301 301 302 304 306 306 306 305 303 303 302 302 301 301 299 298 298 298 297 296 295 294 294 292 291 291 290 289 287 286 284 282 280 280 279 278 276 276 275
301 301 300 300 301 302 303 305 306 306 305 304 303 302 302 302 302 301 300 298 298 297 297 296 294 292 292 292 291 290 290 290 288 286 284 282 280 280 280 278 277 276 275
300 299 299 299 300 301 302 302 302 303 302 302 302 302 301 300 301 300 300 299 298 297 296 294 293 292 291 290 289 288 289 290 288 287 284 282 280 280 280 280 278 277 275
300 299 298 298 298 299 299 299 300 300 300 300 300 300 299 299 299 299 298 298 298 297 295 294 292 291 291 291 292 289 288 289 289 288 286 283 281 280 279 280 279 278 277
297 298 297 297 297 297 298 299 299 298 298 299 299 299 299 298 298 298 297 297 296 296 295 293 293 292 291 291 291 292 290 289 289 287 285 284 282 281 279 279 279 278 277
295 296 296 295 295 295 296 297 297 297 298 299 300 299 298 298 298 297 296 296 295 295 294 294 293 293 292 292 292 292 292 291 289 287 285 284 282 281 280 279 280 279 277
Height
5889 5889 5888 5888 5887 5887 5887 5887 5886 5886 5886 5886 5885 5885 5885 5884 5883 5883 5882 5882 5881 5881 5880 5879 5878 5877 5876 5876 5875 5875 5874 5874 5874 5874 5874 5874 5873 5873 5873 5872 5872 5872 5872
5888 5888 5887 5887 5887 5886 5886 5885 5885 5885 5884 5884 5884 5883 5883 5882 5881 5881 5880 5880 5879 5878 5878 5877 5876 5875 5874 5873 5873 5872 5872 5872 5871 5871 5871 5871 5871 5870 5870 5870 5869 5869 5869
5887 5887 5887 5886 5886 5885 5885 5884 5884 5884 5883 5883 5882 5882 5881 5880 5879 5879 5878 5877 5877 5876 5875 5875 5874 5872 5872 5872 5871 5870 5869 5869 5869 5868 5868 5867 5867 5867 5867 5866 5866 5866 5866
5887 5886 5886 5885 5885 5884 5884 5883 5883 5882 5882 5881 5881 5880 5879 5878 5877 5877 5876 5875 5875 5874 5873 5872 5871 5870 5870 5869 5868 5867 5866 5866 5865 5865 5864 5864 5864 5864 5863 5863 5863 5862 5862
5886 5886 5885 5885 5884 5884 5883 5882 5882 5881 5881 5880 5879 5878 5877 5876 5875 5874 5873 5872 5872 5871 5870 5869 5869 5868 5867 5866 5865 5864 5863 5862 5862 5861 5861 5861 5860 5860 5860 5859 5859 5859 5859
5885 5885 5884 5884 5883 5883 5882 5881 5880 5880 5879 5878 5877 5876 5875 5874 5873 5872 5871 5870 5869 5868 5867 5867 5866 5865 5864 5863 5862 5861 5860 5858 5858 5857 5857 5857 5857 5856 5856 5855 5855 5855 5855
5885 5884 5883 5883 5882 5882 5881 5880 5879 5878 5877 5876 5875 5874 5873 5871 5870 5869 5868 5867 5866 5865 5864 5863 5862 5861 5860 5859 5858 5857 5856 5855 5854 5853 5853 5853 5852 5852 5852 5851 5851 5851 5850
5884 5883 5883 5882 5881 5881 5880 5879 5878 5876 5875 5874 5873 5872 5871 5870 5868 5866 5865 5864 5863 5862 5861 5860 5859 5858 5857 5856 5855 5854 5852 5851 5851 5850 5849 5848 5848 5847 5847 5847 5847 5846 5846
5883 5882 5882 5881 5880 5879 5878 5877 5876 5875 5874 5873 5871 5870 5869 5868 5866 5864 5862 5861 5859 5858 5857 5856 5855 5854 5852 5851 5850 5849 5848 5847 5846 5845 5845 5844 5843 5842 5842 5842 5842 5841 5841
5882 5881 5880 5880 5879 5878 5877 5876 5875 5873 5872 5870 5869 5867 5866 5865 5863 5862 5860 5857 5856 5855 5853 5852 5851 5850 5848 5847 5845 5844 5843 5842 5841 5840 5840 5839 5838 5837 5837 5837 5837 5836 5836
5881 5880 5879 5878 5878 5877 5876 5874 5873 5871 5869 5868 5866 5865 5863 5861 5860 5858 5857 5855 5853 5851 5850 5848 5847 5845 5843 5842 5841 5839 5838 5837 5836 5835 5834 5834 5833 5832 5832 5831 5831 5831 5830
5880 5879 5878 5877 5876 5875 5874 5872 5870 5869 5867 5865 5863 5862 5860 5858 5856 5855 5853 5851 5849 5847 5845 5844 5842 5841 5839 5837 5835 5834 5833 5832 5831 5829 5829 5828 5827 5827 5826 5826 5825 5825 5824
5879 5878 5877 5876 5874 5873 5871 5870 5868 5866 5863 5862 5860 5858 5856 5854 5852 5851 5849 5847 5845 5843 5841 5839 5837 5835 5834 5832 5830 5828 5827 5825 5824 5824 5823 5822 5821 5821 5820 5820 5819 5819 5818
5877 5876 5875 5873 5872 5870 5868 5866 5864 5862 5860 5858 5856 5854 5852 5850 5848 5846 5844 5842 5840 5838 5836 5834 5832 5830 5828 5826 5824 5823 5821 5819 5818 5818 5817 5816 5815 5814 5813 5813 5813 5813 5812
5875 5873 5872 5870 5869 5867 5865 5863 5861 5858 5856 5854 5852 5849 5847 5845 5843 5840 5838 5836 5835 5833 5831 5829 5826 5824 5822 5820 5818 5817 5815 5814 5812 5811 5810 5810 5809 5808 5807 5807 5806 5806 5806
5872 5870 5868 5867 5865 5863 5861 5859 5857 5854 5852 5849 5847 5845 5842 5840 5838 5835 5833 5831 5829 5827 5825 5823 5820 5818 5816 5814 5812 5810 5809 5807 5806 5805 5804 5803 5802 5801 5800 5800 5799 5799 5798
5868 5867 5864 5862 5860 5858 5856 5854 5852 5849 5847 5845 5842 5840 5837 5835 5832 5830 5828 5825 5823 5820 5818 5816 5813 5811 5809 5807 5805 5803 5802 5801 5800 5799 5797 5796 5795 5795 5794 5793 5792 5792 5791
5864 5862 5860 5858 5856 5854 5851 5849 5847 5844 5842 5839 5837 5834 5831 5829 5826 5824 5821 5819 5816 5814 5812 5809 5807 5804 5802 5800 5799 5797 5795 5794 5793 5791 5790 5789 5788 5788 5787 5786 5785 5785 5784
5860 5858 5856 5853 5851 5848 5846 5843 5841 5839 5836 5833 5830 5828 5825 5822 5819 5817 5814 5812 5810 5807 5805 5803 5800 5797 5795 5793 5792 5790 5789 5787 5785 5784 5783 5782 5781 5780 5779 5778 5777 5777 5777
5854 5852 5850 5848 5845 5843 5840 5837 5834 5832 5829 5827 5824 5821 5818 5815 5813 5810 5807 5805 5802 5800 5798 5796 5794 5791 5789 5786 5785 5783 5781 5779 5778 5776 5775 5774 5773 5772 5771 5770 5769 5769 5769
5849 5847 5844 5842 5839 5837 5834 5831 5828 5825 5823 5820 5817 5814 5811 5808 5805 5803 5800 5798 5795 5793 5790 5788 5786 5784 5782 5779 5778 5776 5774 5772 5770 5768 5767 5765 5764 5764 5763 5762 5761 5760 5760
5843 5840 5838 5835 5833 5830 5827 5824 5821 5818 5815 5812 5810 5807 5804 5801 5798 5795 5792 5790 5787 5785 5782 5780 5778 5776 5774 5772 5769 5767 5766 5764 5762 5761 5758 5757 5756 5755 5754 5753 5752 5752 5751
5836 5833 5831 5828 5825 5822 5819 5817 5814 5811 5808 5805 5802 5799 5796 5794 5791 5788 5785 5782 5779 5776 5774 5772 5770 5768 5766 5763 5761 5759 5757 5755 5753 5751 5749 5748 5747 5746 5745 5744 5743 5743 5742
5828 5826 5823 5820 5817 5814 5811 5808 5806 5803 5800 5797 5794 5791 5788 5785 5782 5779 5777 5774 5771 5768 5766 5763 5761 5759 5757 5754 5752 5750 5748 5746 5744 5742 5740 5739 5738 5737 5736 5735 5734 5733 5733
5820 5817 5815 5812 5809 5806 5803 5800 5797 5794 5791 5788 5785 5782 5779 5776 5773 5770 5767 5764 5762 5759 5756 5754 5752 5750 5747 5745 5743 5740 5738 5736 5735 5733 5731 5729 5729 5728 5727 5726 5725 5724 5724
5810 5808 5805 5803 5800 5797 5794 5791 5788 5785 5782 5779 5776 5773 5770 5767 5764 5760 5757 5755 5752 5749 5747 5744 5742 5740 5738 5735 5733 5731 5729 5727 5725 5724 5722 5720 5719 5718 5717 5717 5715 5714 5714